This is the latest recevied weather packets stored in our database for station/object DG3RAP-11. If no packets are shown the sender has not sent any weather packets the latest 10 day(s).
| Time | Temp. | Humidity | Pressure | Rain* | Wind** | Luminosity | Snow |
|---|---|---|---|---|---|---|---|
| 1777568943 | 13.89° C | 27% | 1025.7 hPa | 0 mm | - | - | - |
| 1777568403 | 13.89° C | 26% | 1025.6 hPa | 0 mm | - | - | - |
| 1777568043 | 13.89° C | 26% | 1025.7 hPa | 0 mm | - | - | - |
| 1777567503 | 13.89° C | 26% | 1025.7 hPa | 0 mm | - | - | - |
| 1777566963 | 14.44° C | 26% | 1025.7 hPa | 0 mm | - | - | - |
| 1777566423 | 14.44° C | 27% | 1025.8 hPa | 0 mm | - | - | - |
| 1777565883 | 13.89° C | 26% | 1025.7 hPa | 0 mm | - | - | - |
| 1777565343 | 14.44° C | 26% | 1025.6 hPa | 0 mm | - | - | - |
| 1777564803 | 14.44° C | 26% | 1026 hPa | 0 mm | - | - | - |
| 1777564443 | 14.44° C | 27% | 1025.7 hPa | 0 mm | - | - | - |
| 1777563903 | 14.44° C | 27% | 1025.8 hPa | 0 mm | - | - | - |
| 1777563363 | 14.44° C | 26% | 1025.8 hPa | 0 mm | - | - | - |
| 1777562824 | 14.44° C | 27% | 1025.8 hPa | 0 mm | - | - | - |
| 1777562283 | 14.44° C | 26% | 1025.8 hPa | 0 mm | - | - | - |
| 1777561743 | 14.44° C | 26% | 1025.8 hPa | 0 mm | - | - | - |
| 1777561203 | 14.44° C | 27% | 1025.9 hPa | 0 mm | - | - | - |
| 1777560843 | 15° C | 26% | 1026 hPa | 0 mm | - | - | - |
| 1777560303 | 15° C | 26% | 1026 hPa | 0 mm | - | - | - |
| 1777559763 | 14.44° C | 27% | 1025.9 hPa | 0 mm | - | - | - |
| 1777559223 | 14.44° C | 27% | 1026.3 hPa | 0 mm | - | - | - |
| 1777558683 | 14.44° C | 26% | 1026.3 hPa | 0 mm | - | - | - |
| 1777558144 | 15.56° C | 27% | 1026.1 hPa | 0 mm | - | - | - |
| 1777557604 | 13.89° C | 27% | 1026.1 hPa | 0 mm | - | - | - |
| 1777557243 | 15° C | 27% | 1026.2 hPa | 0 mm | - | - | - |
| 1777556703 | 14.44° C | 28% | 1026.3 hPa | 0 mm | - | - | - |
* Rain latest hour (hover to see other rain measurements)
** Current wind speed in m/s (hover to see current wind gust speed)